| time (UTC) | temp F | wind direction | speed knots | gust knots | rain 1hr in | rain 24hr in | rain mn in | humidity % | barometer mb |
| 20260504223322 | 79 | 188 | 5.2 | 12.2 | 0.00 | 0.00 | 0.00 | 66 | 1011.5 |
| 20260504222824 | 80 | 153 | 5.2 | 12.2 | 0.00 | 0.00 | 0.00 | 66 | 1011.5 |
| 20260504222327 | 80 | 163 | 6.1 | 13.0 | 0.00 | 0.00 | 0.00 | 65 | 1011.5 |
| 20260504221830 | 80 | 182 | 8.7 | 13.0 | 0.00 | 0.00 | 0.00 | 64 | 1011.7 |
| 20260504221334 | 80 | 194 | 5.2 | 11.3 | 0.00 | 0.00 | 0.00 | 64 | 1011.7 |
| 20260504220858 | 80 | 175 | 4.3 | 11.3 | 0.00 | 0.00 | 0.00 | 63 | 1011.7 |
| 20260504220323 | 80 | 154 | 5.2 | 11.3 | 0.00 | 0.00 | 0.00 | 63 | 1011.7 |
| 20260504215826 | 80 | 147 | 6.1 | 13.0 | 0.00 | 0.00 | 0.00 | 62 | 1011.7 |
| 20260504215328 | 81 | 203 | 8.7 | 13.0 | 0.00 | 0.00 | 0.00 | 61 | 1011.7 |
| 20260504214831 | 81 | 185 | 5.2 | 10.4 | 0.00 | 0.00 | 0.00 | 61 | 1011.8 |
| 20260504214334 | 81 | 214 | 4.3 | 11.3 | 0.00 | 0.00 | 0.00 | 61 | 1011.8 |
| 20260504213837 | 81 | 203 | 5.2 | 11.3 | 0.00 | 0.00 | 0.00 | 60 | 1011.8 |
| 20260504213325 | 81 | 137 | 6.1 | 9.6 | 0.00 | 0.00 | 0.00 | 60 | 1012.1 |
| 20260504212834 | 81 | 201 | 5.2 | 12.2 | 0.00 | 0.00 | 0.00 | 60 | 1012.1 |
| 20260504212338 | 82 | 161 | 3.5 | 12.2 | 0.00 | 0.00 | 0.00 | 59 | 1012.1 |
| 20260504211840 | 82 | 201 | 7.0 | 10.4 | 0.00 | 0.00 | 0.00 | 58 | 1012.2 |
| 20260504211324 | 82 | 178 | 4.3 | 9.6 | 0.00 | 0.00 | 0.00 | 59 | 1012.2 |
| 20260504210849 | 82 | 167 | 4.3 | 12.2 | 0.00 | 0.00 | 0.00 | 59 | 1012.2 |
| 20260504210334 | 82 | 157 | 7.0 | 12.2 | 0.00 | 0.00 | 0.00 | 58 | 1012.3 |
| 20260504205856 | 83 | 175 | 5.2 | 10.4 | 0.00 | 0.00 | 0.00 | 58 | 1012.3 |
| 20260504205341 | 84 | 124 | 4.3 | 9.6 | 0.00 | 0.00 | 0.00 | 56 | 1012.3 |
| 20260504204826 | 83 | 239 | 1.7 | 8.7 | 0.00 | 0.00 | 0.00 | 57 | 1012.8 |
| 20260504204330 | 82 | 197 | 2.6 | 8.7 | 0.00 | 0.00 | 0.00 | 58 | 1012.7 |
| 20260504203835 | 82 | 215 | 4.3 | 9.6 | 0.00 | 0.00 | 0.00 | 58 | 1012.7 |
| 20260504203359 | 83 | 173 | 6.1 | 9.6 | 0.00 | 0.00 | 0.00 | 57 | 1012.9 |
| 20260504202825 | 83 | 165 | 2.6 | 7.8 | 0.00 | 0.00 | 0.00 | 56 | 1012.9 |
| 20260504202351 | 83 | 175 | 5.2 | 7.8 | 0.00 | 0.00 | 0.00 | 57 | 1012.9 |
| 20260504201854 | 83 | 246 | 2.6 | 7.0 | 0.00 | 0.00 | 0.00 | 57 | 1013.3 |
| 20260504201339 | 82 | 176 | 3.5 | 8.7 | 0.00 | 0.00 | 0.00 | 58 | 1013.3 |
| 20260504200845 | 82 | 184 | 4.3 | 10.4 | 0.00 | 0.00 | 0.00 | 57 | 1013.3 |
| 20260504200332 | 82 | 202 | 5.2 | 10.4 | 0.00 | 0.00 | 0.00 | 57 | 1013.4 |
| 20260504195838 | 83 | 231 | 5.2 | 8.7 | 0.00 | 0.00 | 0.00 | 58 | 1013.4 |
| 20260504195324 | 83 | 176 | 2.6 | 7.8 | 0.00 | 0.00 | 0.00 | 56 | 1013.4 |
| 20260504194852 | 84 | 178 | 2.6 | 7.8 | 0.00 | 0.00 | 0.00 | 56 | 1013.6 |
| 20260504194341 | 82 | 208 | 3.5 | 9.6 | 0.00 | 0.00 | 0.00 | 57 | 1013.6 |
| 20260504193845 | 82 | 141 | 4.3 | 9.6 | 0.00 | 0.00 | 0.00 | 60 | 1013.6 |
| 20260504193329 | 82 | 237 | 5.2 | 8.7 | 0.00 | 0.00 | 0.00 | 57 | 1013.8 |
| 20260504192855 | 82 | 211 | 3.5 | 10.4 | 0.00 | 0.00 | 0.00 | 57 | 1013.8 |
| 20260504192339 | 82 | 177 | 2.6 | 10.4 | 0.00 | 0.00 | 0.00 | 58 | 1013.8 |
| 20260504191824 | 82 | 156 | 4.3 | 11.3 | 0.00 | 0.00 | 0.00 | 58 | 1013.9 |
| 20260504191334 | 82 | 186 | 5.2 | 11.3 | 0.00 | 0.00 | 0.00 | 56 | 1013.9 |
| 20260504190820 | 82 | 179 | 3.5 | 13.0 | 0.00 | 0.00 | 0.00 | 58 | 1013.9 |
| 20260504190327 | 81 | 188 | 7.0 | 13.0 | 0.00 | 0.00 | 0.00 | 59 | 1014.3 |
| 20260504185831 | 79 | 182 | 6.1 | 11.3 | 0.00 | 0.00 | 0.00 | 61 | 1014.3 |
| 20260504185339 | 80 | 141 | 7.8 | 10.4 | 0.00 | 0.00 | 0.00 | 59 | 1014.3 |
| 20260504184826 | 81 | 131 | 5.2 | 11.3 | 0.00 | 0.00 | 0.00 | 58 | 1014.3 |
| 20260504184353 | 81 | 142 | 4.3 | 11.3 | 0.00 | 0.00 | 0.00 | 57 | 1014.3 |
| 20260504183841 | 81 | 144 | 6.1 | 11.3 | 0.00 | 0.00 | 0.00 | 58 | 1014.3 |
| 20260504183327 | 81 | 198 | 6.1 | 11.3 | 0.00 | 0.00 | 0.00 | 58 | 1014.3 |
| 20260504182832 | 81 | 145 | 5.2 | 12.2 | 0.00 | 0.00 | 0.00 | 59 | 1014.3 |
| 20260504182341 | 81 | 195 | 7.0 | 12.2 | 0.00 | 0.00 | 0.00 | 57 | 1014.3 |
| 20260504181829 | 80 | 180 | 3.5 | 12.2 | 0.00 | 0.00 | 0.00 | 60 | 1014.7 |
| 20260504181340 | 80 | 142 | 7.8 | 13.9 | 0.00 | 0.00 | 0.00 | 60 | 1014.7 |
| 20260504180827 | 81 | 175 | 5.2 | 10.4 | 0.00 | 0.00 | 0.00 | 59 | 1014.7 |
| 20260504180351 | 81 | 166 | 5.2 | 9.6 | 0.00 | 0.00 | 0.00 | 57 | 1014.9 |
| 20260504175836 | 80 | 165 | 6.1 | 13.0 | 0.00 | 0.00 | 0.00 | 60 | 1014.9 |
| 20260504175344 | 80 | 126 | 5.2 | 13.0 | 0.00 | 0.00 | 0.00 | 58 | 1014.9 |
| 20260504174831 | 80 | 162 | 5.2 | 10.4 | 0.00 | 0.00 | 0.00 | 58 | 1015.0 |
| 20260504174335 | 79 | 162 | 5.2 | 14.8 | 0.00 | 0.00 | 0.00 | 59 | 1015.0 |
| 20260504173841 | 79 | 184 | 7.0 | 14.8 | 0.00 | 0.00 | 0.00 | 60 | 1015.0 |
| 20260504173326 | 78 | 184 | 6.1 | 13.9 | 0.00 | 0.00 | 0.00 | 60 | 1015.4 |
| 20260504172853 | 79 | 157 | 8.7 | 13.9 | 0.00 | 0.00 | 0.00 | 60 | 1015.4 |
| 20260504172357 | 78 | 183 | 5.2 | 13.0 | 0.00 | 0.00 | 0.00 | 60 | 1015.4 |
| 20260504171822 | 78 | 155 | 6.1 | 13.0 | 0.00 | 0.00 | 0.00 | 62 | 1015.4 |
| 20260504171330 | 78 | 172 | 5.2 | 11.3 | 0.00 | 0.00 | 0.00 | 60 | 1015.4 |
| 20260504170820 | 78 | 172 | 6.1 | 12.2 | 0.00 | 0.00 | 0.00 | 62 | 1015.4 |
| 20260504170328 | 77 | 151 | 8.7 | 12.2 | 0.00 | 0.00 | 0.00 | 62 | 1015.6 |
| 20260504160339 | 75 | 200 | 7.0 | 13.9 | 0.00 | 0.00 | 0.00 | 65 | 1016.3 |
| 20260504150819 | 74 | 197 | 5.2 | 11.3 | 0.00 | 0.00 | 0.00 | 67 | 1016.3 |
| 20260504150327 | 73 | 185 | 4.3 | 11.3 | 0.00 | 0.00 | 0.00 | 68 | 1016.1 |
| 20260504141332 | 71 | 156 | 4.3 | 11.3 | 0.00 | 0.00 | 0.00 | 68 | 1016.3 |
| 20260504140839 | 71 | 194 | 3.5 | 10.4 | 0.00 | 0.00 | 0.00 | 68 | 1016.3 |
| 20260504140323 | 71 | 118 | 5.2 | 10.4 | 0.00 | 0.00 | 0.00 | 68 | 1016.1 |
| 20260504130332 | 67 | 141 | 4.3 | 6.1 | 0.00 | 0.00 | 0.00 | 72 | 1016.0 |
| 20260504110324 | 61 | 134 | 1.7 | 3.5 | 0.00 | 0.00 | 0.00 | 79 | 1015.8 |
| 20260504100327 | 61 | 134 | 1.7 | 2.6 | 0.00 | 0.00 | 0.00 | 77 | 1015.9 |
| 20260504081831 | 62 | 171 | 0.0 | 0.9 | 0.00 | 0.00 | 0.00 | 77 | 1016.9 |
| 20260504081336 | 62 | 171 | 0.0 | 0.9 | 0.00 | 0.00 | 0.00 | 77 | 1016.9 |
| 20260504080843 | 62 | 171 | 0.0 | 0.9 | 0.00 | 0.00 | 0.00 | 77 | 1016.9 |
| 20260504080348 | 62 | 171 | 0.0 | 0.9 | 0.00 | 0.00 | 0.00 | 76 | 1017.2 |
| 20260504070337 | 63 | 171 | 0.9 | 2.6 | 0.00 | 0.00 | 0.00 | 73 | 1018.0 |
| 20260504050330 | 65 | 182 | 0.0 | 2.6 | 0.00 | 0.00 | 0.00 | 70 | 1018.6 |
| 20260504045837 | 65 | 182 | 0.9 | 2.6 | 0.00 | 0.00 | 0.00 | 69 | 1018.6 |
| 20260504045323 | 65 | 182 | 0.0 | 0.0 | 0.00 | 0.00 | 0.00 | 69 | 1018.6 |
| 20260504044833 | 65 | 182 | 0.0 | 0.0 | 0.00 | 0.00 | 0.00 | 68 | 1018.8 |
| 20260504044320 | 66 | 182 | 0.0 | 0.0 | 0.00 | 0.00 | 0.00 | 67 | 1018.8 |
| 20260504043829 | 66 | 182 | 0.0 | 0.0 | 0.00 | 0.00 | 0.00 | 67 | 1018.8 |
| 20260504043335 | 66 | 182 | 0.0 | 0.0 | 0.00 | 0.00 | 0.00 | 66 | 1018.8 |
| 20260504042823 | 66 | 182 | 0.0 | 2.6 | 0.00 | 0.00 | 0.00 | 65 | 1018.8 |
| 20260504042332 | 67 | 182 | 0.0 | 3.5 | 0.00 | 0.00 | 0.00 | 65 | 1018.8 |
| 20260504041858 | 67 | 182 | 0.9 | 3.5 | 0.00 | 0.00 | 0.00 | 64 | 1019.0 |
| 20260504041323 | 67 | 184 | 1.7 | 4.3 | 0.00 | 0.00 | 0.00 | 64 | 1019.0 |
| 20260504040828 | 67 | 179 | 1.7 | 4.3 | 0.00 | 0.00 | 0.00 | 63 | 1019.0 |
| 20260504040336 | 67 | 177 | 1.7 | 3.5 | 0.00 | 0.00 | 0.00 | 63 | 1018.9 |
| 20260504035842 | 68 | 183 | 1.7 | 4.3 | 0.00 | 0.00 | 0.00 | 63 | 1018.9 |
| 20260504035328 | 68 | 178 | 0.9 | 4.3 | 0.00 | 0.00 | 0.00 | 62 | 1018.9 |
| 20260504034834 | 68 | 186 | 1.7 | 4.3 | 0.00 | 0.00 | 0.00 | 62 | 1019.0 |
| 20260504034323 | 68 | 128 | 2.6 | 4.3 | 0.00 | 0.00 | 0.00 | 61 | 1019.0 |
| 20260504033833 | 68 | 196 | 2.6 | 5.2 | 0.00 | 0.00 | 0.00 | 61 | 1019.0 |
| 20260504033337 | 68 | 143 | 2.6 | 5.2 | 0.00 | 0.00 | 0.00 | 61 | 1019.0 |
| 20260504032822 | 69 | 180 | 2.6 | 5.2 | 0.00 | 0.00 | 0.00 | 60 | 1019.0 |
| 20260504032326 | 69 | 165 | 3.5 | 5.2 | 0.00 | 0.00 | 0.00 | 60 | 1019.0 |
| 20260504031851 | 69 | 172 | 1.7 | 6.1 | 0.00 | 0.00 | 0.00 | 59 | 1018.8 |
| 20260504031333 | 69 | 160 | 2.6 | 6.1 | 0.00 | 0.00 | 0.00 | 59 | 1018.8 |
| 20260504030836 | 69 | 188 | 2.6 | 5.2 | 0.00 | 0.00 | 0.00 | 58 | 1018.8 |
| 20260504030323 | 70 | 160 | 1.7 | 8.7 | 0.00 | 0.00 | 0.00 | 58 | 1018.5 |
| 20260504025828 | 70 | 154 | 3.5 | 8.7 | 0.00 | 0.00 | 0.00 | 58 | 1018.5 |
| 20260504025335 | 70 | 138 | 4.3 | 8.7 | 0.00 | 0.00 | 0.00 | 57 | 1018.5 |
| 20260504024822 | 70 | 135 | 6.1 | 8.7 | 0.00 | 0.00 | 0.00 | 57 | 1018.6 |
| 20260504024329 | 70 | 145 | 6.1 | 8.7 | 0.00 | 0.00 | 0.00 | 57 | 1018.6 |
| 20260504023837 | 70 | 138 | 4.3 | 7.8 | 0.00 | 0.00 | 0.00 | 57 | 1018.6 |
| 20260504023321 | 70 | 138 | 3.5 | 7.8 | 0.00 | 0.00 | 0.00 | 56 | 1018.6 |
| 20260504022828 | 71 | 125 | 3.5 | 7.8 | 0.00 | 0.00 | 0.00 | 56 | 1018.6 |
| 20260504022334 | 71 | 187 | 5.2 | 7.8 | 0.00 | 0.00 | 0.00 | 55 | 1018.6 |
| 20260504021820 | 71 | 165 | 3.5 | 7.8 | 0.00 | 0.00 | 0.00 | 55 | 1018.5 |
| 20260504021328 | 71 | 167 | 4.3 | 8.7 | 0.00 | 0.00 | 0.00 | 54 | 1018.5 |
| 20260504020855 | 71 | 151 | 5.2 | 8.7 | 0.00 | 0.00 | 0.00 | 54 | 1018.5 |
| 20260504020320 | 72 | 163 | 3.5 | 8.7 | 0.00 | 0.00 | 0.00 | 54 | 1018.3 |
| 20260504015824 | 72 | 142 | 4.3 | 9.6 | 0.00 | 0.00 | 0.00 | 53 | 1018.3 |
| 20260504015337 | 72 | 200 | 5.2 | 9.6 | 0.00 | 0.00 | 0.00 | 53 | 1018.3 |
| 20260504014824 | 72 | 179 | 3.5 | 7.0 | 0.00 | 0.00 | 0.00 | 53 | 1018.1 |
| 20260504014331 | 72 | 141 | 3.5 | 8.7 | 0.00 | 0.00 | 0.00 | 53 | 1018.1 |
| 20260504013837 | 73 | 162 | 5.2 | 8.7 | 0.00 | 0.00 | 0.00 | 53 | 1018.1 |
| 20260504013346 | 73 | 190 | 3.5 | 9.6 | 0.00 | 0.00 | 0.00 | 52 | 1018.0 |
| 20260504012829 | 73 | 188 | 5.2 | 10.4 | 0.00 | 0.00 | 0.00 | 52 | 1018.0 |
| 20260504012335 | 73 | 160 | 5.2 | 10.4 | 0.00 | 0.00 | 0.00 | 51 | 1018.0 |
| 20260504011824 | 74 | 165 | 2.6 | 7.8 | 0.00 | 0.00 | 0.00 | 50 | 1018.1 |
| 20260504011332 | 74 | 138 | 3.5 | 6.1 | 0.00 | 0.00 | 0.00 | 50 | 1018.1 |
| 20260504010857 | 74 | 151 | 3.5 | 7.8 | 0.00 | 0.00 | 0.00 | 49 | 1018.1 |
| 20260504010343 | 74 | 151 | 3.5 | 8.7 | 0.00 | 0.00 | 0.00 | 49 | 1018.0 |
| 20260504005827 | 74 | 142 | 4.3 | 8.7 | 0.00 | 0.00 | 0.00 | 49 | 1018.0 |
| 20260504005333 | 75 | 132 | 2.6 | 7.8 | 0.00 | 0.00 | 0.00 | 49 | 1018.0 |
| 20260504004843 | 75 | 132 | 3.5 | 8.7 | 0.00 | 0.00 | 0.00 | 48 | 1018.0 |
| 20260504004331 | 75 | 146 | 4.3 | 8.7 | 0.00 | 0.00 | 0.00 | 48 | 1018.0 |
| 20260504003837 | 75 | 146 | 4.3 | 9.6 | 0.00 | 0.00 | 0.00 | 48 | 1018.0 |
| 20260504003326 | 75 | 139 | 5.2 | 9.6 | 0.00 | 0.00 | 0.00 | 47 | 1018.0 |
| 20260504002834 | 75 | 146 | 3.5 | 8.7 | 0.00 | 0.00 | 0.00 | 47 | 1018.0 |
| 20260504002338 | 76 | 146 | 4.3 | 10.4 | 0.00 | 0.00 | 0.00 | 47 | 1018.0 |
| 20260504001822 | 76 | 135 | 4.3 | 11.3 | 0.00 | 0.00 | 0.00 | 47 | 1018.0 |
| 20260504001328 | 77 | 149 | 7.0 | 11.3 | 0.00 | 0.00 | 0.00 | 46 | 1018.0 |
| 20260504000834 | 77 | 155 | 4.3 | 9.6 | 0.00 | 0.00 | 0.00 | 43 | 1018.1 |
| 20260504000320 | 77 | 177 | 4.3 | 8.7 | 0.00 | 0.00 | 0.00 | 40 | 1018.1 |
| 20260503235826 | 78 | 154 | 4.3 | 8.7 | 0.00 | 0.00 | 0.00 | 40 | 1018.1 |
| 20260503235336 | 78 | 180 | 5.2 | 8.7 | 0.00 | 0.00 | 0.00 | 39 | 1018.1 |
| 20260503234825 | 78 | 177 | 3.5 | 10.4 | 0.00 | 0.00 | 0.00 | 39 | 1018.0 |
| 20260503234331 | 78 | 193 | 2.6 | 10.4 | 0.00 | 0.00 | 0.00 | 38 | 1018.0 |
| 20260503233901 | 79 | 194 | 2.6 | 8.7 | 0.00 | 0.00 | 0.00 | 38 | 1018.0 |
| 20260503233325 | 79 | 182 | 4.3 | 8.7 | 0.00 | 0.00 | 0.00 | 38 | 1018.2 |
| 20260503232851 | 79 | 172 | 6.1 | 12.2 | 0.00 | 0.00 | 0.00 | 37 | 1018.2 |
| 20260503232334 | 79 | 172 | 7.0 | 12.2 | 0.00 | 0.00 | 0.00 | 38 | 1018.2 |
| 20260503231819 | 80 | 139 | 2.6 | 6.1 | 0.00 | 0.00 | 0.00 | 38 | 1018.2 |
| 20260503231327 | 80 | 222 | 3.5 | 6.1 | 0.00 | 0.00 | 0.00 | 39 | 1018.2 |
| 20260503230855 | 80 | 188 | 3.5 | 8.7 | 0.00 | 0.00 | 0.00 | 38 | 1018.2 |
| 20260503230339 | 79 | 189 | 3.5 | 10.4 | 0.00 | 0.00 | 0.00 | 38 | 1018.5 |
| 20260503225845 | 79 | 132 | 7.8 | 10.4 | 0.00 | 0.00 | 0.00 | 39 | 1018.5 |
| 20260503225329 | 79 | 132 | 7.8 | 10.4 | 0.00 | 0.00 | 0.00 | 38 | 1018.5 |
| 20260503224835 | 79 | 136 | 2.6 | 9.6 | 0.00 | 0.00 | 0.00 | 38 | 1018.5 |
| 20260503224322 | 79 | 144 | 4.3 | 8.7 | 0.00 | 0.00 | 0.00 | 38 | 1018.5 |
| 20260503223848 | 80 | 133 | 5.2 | 7.8 | 0.00 | 0.00 | 0.00 | 37 | 1018.5 |